Location: Constantia
(34.0183°S, 18.4411°E)
Time: 10:56:06
(UTC+00:00)

Cosmos 1603 - Pass Details

Date: 17 February 2020
Orbit: 833 x 858 km, 71.0° (Epoch: 04 April)

Event Time Altitude Azimuth Distance (km) Brightness Sun altitude
Rises 02:45:44 0° 211° (SSW) 3,453 6.9 -19.3°
Reaches altitude 10° 02:48:23 10° 219° (SW) 2,513 6.1 -18.8°
Maximum altitude 02:53:35 36° 284° (WNW) 1,337 4.2 -17.9°
Enters shadow 02:56:58 19° 338° (NNW) 1,913 5.1 -17.3°
